GSAT0218 (PRN E31)

Last updated on Oct. 24, 2020, 5:55 a.m. UTC

1 43058U 17079D   20297.14676497 -.00000010  00000-0  00000-0 0  9990
2 43058  56.1722 278.2883 0006497 271.0398  88.8705  1.70473790 17843
UTC
Height (km)
Latitude
Longitude
Inclination
Orbital Period
UTC large
Height (km)
Speed (km/s)
/
Latitude / Longitude
Inclination (degrees)
Orbital Period (minutes)
Azimuth
Elevation
Range (km)
Doppler Factor
iOS Compass Heading
iOS Angle

Next 30 passes for location: Hong Kong

Rise time Rise Azimuth (degrees) Set time Set Azimuth (degrees) Duration Max altitude (degrees)

No matching passes for this satellites